VE3KSR Weather Reports


Display with metric or nautical units.
time (UTC)temp
F
wind
direction
speed
MPH
gust
MPH
rain 1hr
in
rain 24hr
in
rain mn
in
humidity
%
barometer
mb
20260506152813 41 0 0.0 0.0 5.64 0.00 0.00 92 1020.0
20260506152314 41 0 0.0 0.0 5.64 0.00 0.00 92 1019.6
20260506151813 41 0 0.0 0.0 5.64 0.00 0.00 93 1019.6
20260506151313 41 0 0.0 0.0 5.64 0.00 0.00 95 1019.5
20260506150813 41 0 0.0 0.0 5.64 0.00 0.00 96 1019.8
20260506150313 41 0 0.0 0.0 5.64 0.00 0.00 96 1019.3
20260506145813 41 0 0.0 0.0 5.64 0.00 0.00 96 1019.1
20260506145313 42 0 0.0 0.0 5.64 0.00 0.00 96 1019.4
20260506144813 42 0 0.0 0.0 5.64 0.00 0.00 98 1019.5
20260506144313 42 0 0.0 0.0 5.64 0.00 0.00 99 1019.4
20260506143815 42 0 0.0 0.0 5.64 0.00 0.00 100 1019.1
20260506143313 42 0 0.0 0.0 5.64 0.00 0.00 100 1019.0
20260506142813 42 204 4.0 10.0 5.64 0.00 0.00 100 1019.1
20260506142313 41 0 0.0 0.0 5.64 0.00 0.00 100 1019.1
20260506141813 41 0 0.0 0.0 5.64 0.00 0.00 100 1018.9
20260506141313 41 0 0.0 0.0 5.64 0.00 0.00 100 1019.2
20260506140813 41 307 0.0 5.0 5.64 0.00 0.00 100 1018.9
20260506140313 41 0 0.0 0.0 5.64 0.00 0.00 100 1019.3
20260506135813 40 0 0.0 0.0 5.64 0.00 0.00 100 1019.4
20260506135313 41 0 0.0 0.0 5.64 0.00 0.00 100 1019.3
20260506134813 41 307 0.0 3.0 5.64 0.00 0.00 100 1019.4
20260506134609 41 0 0.0 0.0 5.64 0.00 0.00 100 1019.4
20260506134506 41 0 0.0 0.0 5.64 0.00 0.00 100 1019.4
20260506134347 41 0 0.0 0.0 5.64 0.00 0.00 100 1019.4
20260506134313 41 0 0.0 0.0 5.64 0.00 0.00 100 1019.4
20260506133813 41 0 0.0 0.0 5.64 0.00 0.00 100 1019.3
20260506133313 40 0 0.0 0.0 5.64 0.00 0.00 100 1019.1
20260506132813 41 0 0.0 0.0 5.64 0.00 0.00 100 1019.0
20260506132314 41 0 0.0 0.0 5.64 0.00 0.00 100 1019.0
20260506131814 41 0 0.0 0.0 5.64 0.00 0.00 81 1018.9
20260506131507 41 0 0.0 0.0 5.64 0.00 0.00 100 1019.1
20260506131345 41 0 0.0 0.0 5.64 0.00 0.00 100 1019.1
20260506131313 41 0 0.0 0.0 5.64 0.00 0.00 100 1019.1
20260506130813 40 0 0.0 0.0 5.64 0.00 0.00 100 1019.1
20260506130313 40 0 0.0 0.0 5.64 0.00 0.00 100 1019.0
20260506125814 40 0 0.0 0.0 5.64 0.00 0.00 100 1018.8
20260506125313 40 0 0.0 0.0 5.64 0.00 0.00 100 1019.0
20260506124813 40 0 0.0 0.0 5.64 0.00 0.00 100 1019.1
20260506124313 40 0 0.0 0.0 5.64 0.00 0.00 100 1019.2
20260506123813 40 0 0.0 0.0 5.64 0.00 0.00 100 1019.1
20260506123313 40 0 0.0 0.0 5.64 0.00 0.00 100 1018.8
20260506122814 40 0 0.0 0.0 5.64 0.00 0.00 100 1019.0
20260506122313 40 0 0.0 0.0 5.64 0.00 0.00 100 1018.9
20260506121813 40 0 0.0 0.0 5.64 0.00 0.00 100 1018.9
20260506121314 40 0 0.0 0.0 5.64 0.00 0.00 100 1019.0
20260506120821 39 0 0.0 0.0 5.64 0.00 0.00 100 1018.9
20260506120313 39 0 0.0 0.0 5.64 0.00 0.00 100 1018.6
20260506115813 40 0 0.0 0.0 5.64 0.00 0.00 100 1018.7
20260506115313 40 0 0.0 0.0 5.64 0.00 0.00 100 1018.7
20260506114813 40 0 0.0 0.0 5.64 0.00 0.00 100 1018.4
20260506114313 40 0 0.0 0.0 5.64 0.00 0.00 100 1018.1
20260506113813 40 0 0.0 0.0 5.64 0.00 0.00 100 1017.9
20260506113313 40 0 0.0 0.0 5.64 0.00 0.00 100 1017.9
20260506112813 40 0 0.0 0.0 5.64 0.00 0.00 100 1018.1
20260506112314 40 0 0.0 0.0 5.64 0.00 0.00 100 1018.2
20260506111813 40 0 0.0 0.0 5.64 0.00 0.00 100 1018.0
20260506111313 39 0 0.0 0.0 5.64 0.00 0.00 100 1017.9
20260506110814 39 0 0.0 0.0 5.64 0.00 0.00 100 1017.9
20260506110313 40 0 0.0 0.0 5.64 0.00 0.00 100 1018.0
20260506105814 40 0 0.0 0.0 5.64 0.00 0.00 100 1017.9
20260506105314 40 0 0.0 0.0 5.64 0.00 0.00 100 1017.7
20260506104814 39 0 0.0 0.0 5.64 0.00 0.00 100 1017.4
20260506104313 39 0 0.0 0.0 5.64 0.00 0.00 100 1017.3
20260506103814 39 0 0.0 0.0 5.64 0.00 0.00 100 1017.3
20260506103313 39 0 0.0 0.0 5.64 0.00 0.00 100 1017.5
20260506102813 40 0 0.0 0.0 5.64 0.00 0.00 100 1017.5
20260506102313 40 0 0.0 0.0 5.64 0.00 0.00 100 1017.4
20260506101813 40 0 0.0 0.0 5.64 0.00 0.00 100 1017.3
20260506101313 41 0 0.0 0.0 5.64 0.00 0.00 100 1017.6
20260506100814 41 0 0.0 0.0 5.64 0.00 0.00 100 1017.7
20260506100314 41 0 0.0 0.0 5.64 0.00 0.00 100 1017.5
20260506095813 41 0 0.0 0.0 5.64 0.00 0.00 100 1016.9
20260506095317 41 0 0.0 0.0 5.64 0.00 0.00 100 1016.6
20260506094813 41 0 0.0 0.0 5.64 0.00 0.00 100 1016.6
20260506094314 41 0 0.0 0.0 5.64 0.00 0.00 100 1016.8
20260506093813 41 0 0.0 0.0 5.64 0.00 0.00 100 1016.9
20260506093314 42 0 0.0 0.0 5.64 0.00 0.00 100 1016.9
20260506092814 42 0 0.0 0.0 5.64 0.00 0.00 100 1017.1
20260506092314 42 0 0.0 0.0 5.64 0.00 0.00 100 1017.1
20260506091815 42 0 0.0 0.0 5.64 0.00 0.00 100 1017.5
20260506091314 42 0 0.0 0.0 5.64 0.00 0.00 100 1017.8
20260506090815 42 0 0.0 0.0 5.64 0.00 0.00 100 1017.7
20260506090314 42 0 0.0 0.0 5.64 0.00 0.00 100 1017.6
20260506085814 42 0 0.0 0.0 5.64 0.00 0.00 100 1017.6
20260506085314 42 0 0.0 0.0 5.64 0.00 0.00 100 1017.6
20260506084814 42 0 0.0 0.0 5.64 0.00 0.00 100 1017.6
20260506084314 42 0 0.0 0.0 5.64 0.00 0.00 100 1017.4
20260506083814 42 0 0.0 0.0 5.64 0.00 0.00 100 1017.1
20260506083315 42 0 0.0 0.0 5.64 0.00 0.00 100 1017.2
20260506082814 42 0 0.0 0.0 5.64 0.00 0.00 100 1017.5
20260506082314 42 0 0.0 0.0 5.64 0.00 0.00 100 1017.7
20260506081815 42 0 0.0 0.0 5.64 0.00 0.00 99 1017.8
20260506081314 42 0 0.0 0.0 5.64 0.00 0.00 99 1017.6
20260506080814 42 0 0.0 0.0 5.64 0.00 0.00 99 1017.6
20260506080314 42 0 0.0 0.0 5.64 0.00 0.00 99 1017.7
20260506073314 42 0 0.0 0.0 5.64 0.00 0.00 99 1017.9
20260506072814 42 0 0.0 0.0 5.64 0.00 0.00 99 1017.5
20260506072314 42 0 0.0 0.0 5.64 0.00 0.00 99 1017.5
20260506071814 42 0 0.0 0.0 5.64 0.00 0.00 99 1017.4
20260506071314 42 0 0.0 0.0 5.64 0.00 0.00 99 1017.2
20260506070814 42 0 0.0 0.0 5.64 0.00 0.00 99 1016.8
20260506070314 42 0 0.0 0.0 5.64 0.00 0.00 99 1016.7
20260506062314 43 0 0.0 0.0 5.64 0.00 0.00 100 1017.2
20260506061814 43 0 0.0 0.0 5.64 0.00 0.00 100 1017.3
20260506061314 43 0 0.0 0.0 5.64 0.00 0.00 100 1017.1
20260506060814 43 0 0.0 0.0 5.64 0.00 0.00 100 1017.2
20260506060314 43 0 0.0 0.0 5.64 0.00 0.00 100 1016.8
20260506051314 42 0 0.0 0.0 5.64 0.00 0.00 99 1017.2
20260506050815 41 0 0.0 0.0 5.64 0.00 0.00 98 1016.9
20260506050314 41 0 0.0 0.0 5.64 0.00 0.00 96 1017.1
20260506044815 41 0 0.0 0.0 5.64 0.00 0.00 91 1017.5
20260506044314 41 0 0.0 0.0 5.64 0.00 0.00 91 1017.5
20260506043814 41 0 0.0 0.0 5.64 0.00 0.00 93 1017.5
20260506043314 41 0 0.0 0.0 5.64 0.00 0.00 96 1017.5
20260506042814 41 0 0.0 0.0 5.64 0.00 0.00 97 1017.4
20260506042314 41 0 0.0 0.0 5.64 0.00 0.00 98 1017.5
20260506041814 41 0 0.0 0.0 5.64 0.00 0.00 96 1017.7
20260506041314 41 0 0.0 0.0 5.64 0.00 0.00 95 1017.4
20260506040814 41 0 0.0 0.0 5.64 0.00 0.00 95 1017.4
20260506040314 41 0 0.0 0.0 5.64 0.00 0.00 95 1017.5
20260506035814 41 0 0.0 0.0 5.64 0.00 0.00 95 1017.6
20260506035315 41 0 0.0 0.0 5.64 0.00 0.00 95 1017.7
20260506034814 41 0 0.0 0.0 5.64 0.00 0.00 95 1017.7
20260506034314 41 0 0.0 0.0 5.64 0.00 0.00 94 1017.8
20260506033815 41 0 0.0 0.0 5.64 0.00 0.00 94 1017.7
20260506033314 41 0 0.0 0.0 5.64 0.00 0.00 94 1017.7
20260506032814 41 0 0.0 0.0 5.64 0.00 0.00 92 1017.4
20260506032314 41 0 0.0 0.0 5.64 0.00 0.00 93 1017.6
20260506031815 41 0 0.0 0.0 5.64 0.00 0.00 93 1017.6
20260506031314 41 0 0.0 0.0 5.64 0.00 0.00 92 1017.3
20260506030817 41 0 0.0 0.0 5.64 0.00 0.00 92 1017.2
20260506030314 41 0 0.0 0.0 5.64 0.00 0.00 92 1017.3
20260506025815 41 0 0.0 0.0 5.64 0.00 0.00 92 1017.1
20260506025315 41 0 0.0 0.0 5.64 0.00 0.00 93 1017.2
20260506024815 41 0 0.0 0.0 5.64 0.00 0.00 93 1017.3
20260506024314 42 0 0.0 0.0 5.64 0.00 0.00 93 1017.2
20260506023814 42 0 0.0 0.0 5.64 0.00 0.00 93 1017.2
20260506023315 42 0 0.0 0.0 5.64 0.00 0.00 93 1017.4
20260506022815 41 0 0.0 0.0 5.64 0.00 0.00 92 1017.5
20260506022315 41 0 0.0 0.0 5.64 0.00 0.00 92 1017.2
20260506021815 41 0 0.0 0.0 5.64 0.00 0.00 92 1017.5
20260506021315 41 0 0.0 0.0 5.64 0.00 0.00 93 1017.5
20260506020815 41 0 0.0 0.0 5.64 0.00 0.00 92 1017.3
20260506020316 41 0 0.0 0.0 5.64 0.00 0.00 92 1017.5
20260506015815 41 0 0.0 0.0 5.64 0.00 0.00 92 1017.5
20260506015316 41 0 0.0 0.0 5.64 0.00 0.00 92 1017.2
20260506014815 41 0 0.0 0.0 5.64 0.00 0.00 92 1017.4
20260506014316 41 0 0.0 0.0 5.64 0.00 0.00 92 1017.3
20260506013815 41 0 0.0 0.0 5.64 0.00 0.00 92 1017.3
20260506013315 41 0 0.0 0.0 5.64 0.00 0.00 91 1017.2
20260506012815 41 0 0.0 0.0 5.64 0.00 0.00 91 1017.1
20260506012317 42 0 0.0 0.0 5.64 0.00 0.00 91 1016.9
20260506011815 42 0 0.0 0.0 5.64 0.00 0.00 90 1016.9
20260506011315 42 0 0.0 0.0 5.64 0.00 0.00 89 1016.9
20260506010815 42 0 0.0 0.0 5.64 0.00 0.00 87 1016.8
20260506010315 42 0 0.0 0.0 5.64 0.00 0.00 88 1016.8
20260506005815 42 0 0.0 0.0 5.64 0.00 0.00 88 1016.8
20260506005315 42 0 0.0 0.0 5.64 0.00 0.00 88 1016.5
20260506004815 42 0 0.0 0.0 5.64 0.00 0.00 89 1016.4
20260506004315 42 0 0.0 0.0 5.64 0.00 0.00 89 1016.4
20260506003815 42 0 0.0 0.0 5.64 0.00 0.00 87 1016.1
20260506003315 42 0 0.0 0.0 5.64 0.00 0.00 88 1016.1
20260506002815 42 0 0.0 0.0 5.64 0.00 0.00 87 1016.1
20260506002315 42 0 0.0 0.0 5.64 0.00 0.00 87 1016.1
20260506001815 42 0 0.0 0.0 5.64 0.00 0.00 87 1016.0
20260506001315 42 0 0.0 0.0 5.64 0.00 0.00 86 1016.0
20260506000815 42 0 0.0 0.0 5.64 0.00 0.00 87 1016.0
20260506000316 42 0 0.0 0.0 5.64 0.00 0.00 87 1015.9
20260505235815 42 0 0.0 0.0 5.64 0.00 0.00 87 1016.0
20260505235316 42 0 0.0 0.0 5.64 0.00 0.00 87 1016.1
20260505234815 42 0 0.0 0.0 5.64 0.00 0.00 87 1015.9
20260505234315 42 0 0.0 0.0 5.64 0.00 0.00 87 1015.9
20260505233815 42 0 0.0 0.0 5.64 0.00 0.00 88 1016.0
20260505233315 42 0 0.0 0.0 5.64 0.00 0.00 87 1016.0
20260505232816 42 0 0.0 0.0 5.64 0.00 0.00 88 1015.9
20260505232315 42 0 0.0 0.0 5.64 0.00 0.00 87 1016.0
20260505231815 42 0 0.0 0.0 5.64 0.00 0.00 87 1015.8
20260505231315 42 0 0.0 0.0 5.64 0.00 0.00 87 1015.8
20260505230816 42 0 0.0 0.0 5.64 0.00 0.00 88 1015.8
20260505230315 42 0 0.0 0.0 5.64 0.00 0.00 88 1015.8
20260505225815 42 0 0.0 0.0 5.64 0.00 0.00 88 1015.7
20260505225315 42 0 0.0 0.0 5.64 0.00 0.00 88 1015.6
20260505224815 42 0 0.0 0.0 5.64 0.00 0.00 88 1015.5
20260505224316 42 0 0.0 0.0 5.64 0.00 0.00 88 1015.6
20260505223815 42 0 0.0 0.0 5.64 0.00 0.00 88 1015.6
20260505223315 42 0 0.0 0.0 5.64 0.00 0.00 89 1015.7
20260505222815 42 0 0.0 0.0 5.64 0.00 0.00 89 1015.8
20260505222318 42 0 0.0 0.0 5.64 0.00 0.00 88 1015.8
20260505221815 42 0 0.0 0.0 5.64 0.00 0.00 87 1015.9
20260505221315 42 0 0.0 0.0 5.64 0.00 0.00 88 1015.8
20260505220815 41 0 0.0 0.0 5.64 0.00 0.00 87 1015.8
20260505220315 41 0 0.0 0.0 5.64 0.00 0.00 87 1015.7
20260505215816 41 0 0.0 0.0 5.64 0.00 0.00 87 1015.7
20260505215315 41 0 0.0 0.0 5.64 0.00 0.00 87 1015.8
20260505214815 41 0 0.0 0.0 5.64 0.00 0.00 88 1015.8
20260505214315 41 0 0.0 0.0 5.64 0.00 0.00 89 1015.6
20260505213816 41 0 0.0 0.0 5.64 0.00 0.00 89 1015.7
20260505213317 41 0 0.0 0.0 5.64 0.00 0.00 90 1015.8
20260505212815 41 0 0.0 0.0 5.64 0.00 0.00 90 1015.7
20260505212315 41 0 0.0 0.0 5.64 0.00 0.00 90 1015.7
20260505211815 41 0 0.0 0.0 5.64 0.00 0.00 88 1015.6
20260505211317 41 0 0.0 0.0 5.64 0.00 0.00 89 1015.7
20260505210815 42 0 0.0 0.0 5.64 0.00 0.00 90 1015.6
20260505210317 42 0 0.0 0.0 5.64 0.00 0.00 90 1015.6
20260505205815 41 287 12.0 15.0 5.64 0.00 0.00 89 1015.8
20260505205315 41 277 11.0 15.0 5.64 0.00 0.00 87 1015.8
20260505204815 42 0 0.0 0.0 5.64 0.00 0.00 89 1015.7
20260505204316 42 0 0.0 0.0 5.64 0.00 0.00 91 1015.5
20260505203816 42 0 0.0 0.0 5.64 0.00 0.00 92 1015.4
20260505203316 42 0 0.0 0.0 5.64 0.00 0.00 92 1015.6
20260505202815 42 0 0.0 0.0 5.64 0.00 0.00 93 1015.4
20260505202318 42 0 0.0 0.0 5.64 0.00 0.00 93 1015.6
20260505201815 43 0 0.0 0.0 5.64 0.00 0.00 92 1015.4
20260505201317 43 0 0.0 0.0 5.64 0.00 0.00 92 1015.6
20260505200815 41 0 0.0 0.0 5.64 0.00 0.00 92 1015.3
20260505200315 41 280 13.0 15.0 5.64 0.00 0.00 92 1015.4
20260505195815 41 145 14.0 18.0 5.64 0.00 0.00 93 1015.4
20260505195316 42 281 13.0 16.0 5.64 0.00 0.00 94 1015.4
20260505194815 42 0 0.0 0.0 5.64 0.00 0.00 94 1015.3
20260505194315 42 0 0.0 0.0 5.64 0.00 0.00 94 1015.3
20260505193815 42 332 0.0 3.0 5.64 0.00 0.00 91 1015.2
20260505193315 41 0 0.0 0.0 5.64 0.00 0.00 93 1015.2
20260505192815 41 0 0.0 0.0 5.64 0.00 0.00 93 1015.1
20260505192315 42 0 0.0 0.0 5.64 0.00 0.00 94 1014.9
20260505191815 41 0 0.0 0.0 5.64 0.00 0.00 94 1015.2
20260505191316 40 0 0.0 0.0 5.64 0.00 0.00 95 1015.2
20260505190815 42 0 0.0 0.0 5.64 0.00 0.00 95 1015.1
20260505190316 43 332 1.0 6.0 5.64 0.00 0.00 94 1014.8
20260505185816 43 332 0.0 3.0 5.64 0.00 0.00 92 1014.8
20260505185316 44 0 0.0 0.0 5.64 0.00 0.00 88 1014.7
20260505184816 45 0 0.0 0.0 5.64 0.00 0.00 74 1014.5
20260505184316 46 0 0.0 0.0 5.64 0.00 0.00 84 1014.7
20260505183816 47 359 1.0 5.0 5.64 0.00 0.00 81 1014.6
20260505183316 47 357 11.0 22.0 5.64 0.00 0.00 80 1014.6
20260505182816 47 44 19.0 24.0 5.64 0.00 0.00 77 1014.0
20260505182318 48 314 16.0 21.0 5.64 0.00 0.00 74 1014.1
20260505181816 48 0 0.0 0.0 5.64 0.00 0.00 68 1014.2
20260505181316 48 0 0.0 0.0 5.64 0.00 0.00 67 1014.2
20260505180816 48 0 0.0 0.0 5.64 0.00 0.00 67 1014.4
20260505180316 48 0 0.0 0.0 5.64 0.00 0.00 65 1014.1
20260505175816 48 0 0.0 0.0 5.64 0.00 0.00 67 1014.0
20260505175316 48 330 0.0 4.0 5.64 0.00 0.00 66 1013.9
20260505174816 48 330 0.0 2.0 5.64 0.00 0.00 65 1013.8
20260505174316 48 0 0.0 0.0 5.64 0.00 0.00 65 1013.6
20260505173816 48 0 0.0 0.0 5.64 0.00 0.00 66 1013.5
20260505173316 48 0 0.0 0.0 5.64 0.00 0.00 66 1013.4
20260505172816 48 284 3.0 13.0 5.64 0.00 0.00 64 1013.6
20260505171316 48 0 0.0 0.0 5.64 0.00 0.00 66 1013.6
20260505170816 48 0 0.0 0.0 5.64 0.00 0.00 67 1013.7
20260505170316 48 0 0.0 0.0 5.64 0.00 0.00 66 1013.4
20260505165816 48 0 0.0 0.0 5.64 0.00 0.00 67 1013.5
20260505165316 48 0 0.0 0.0 5.64 0.00 0.00 66 1013.5
20260505164816 48 0 0.0 0.0 5.64 0.00 0.00 69 1013.4
20260505164316 48 0 0.0 0.0 5.64 0.00 0.00 68 1013.3
20260505163816 48 0 0.0 0.0 5.64 0.00 0.00 67 1013.3
20260505163316 48 284 0.0 3.0 5.64 0.00 0.00 69 1013.1
20260505162816 48 294 1.0 10.0 5.64 0.00 0.00 71 1013.2
20260505162316 48 0 0.0 0.0 5.64 0.00 0.00 69 1013.1
20260505161816 48 301 0.0 3.0 5.64 0.00 0.00 69 1013.1
20260505161316 48 0 0.0 0.0 5.64 0.00 0.00 70 1013.2
20260505160816 48 0 0.0 0.0 5.64 0.00 0.00 70 1013.2
20260505160316 48 0 0.0 0.0 5.64 0.00 0.00 71 1013.3
20260505153316 48 0 0.0 0.0 5.64 0.00 0.00 73 1013.0